| time (UTC) | temp C | wind direction | speed KPH | gust KPH | rain 1hr cm | rain 24hr cm | rain mn cm | humidity % | barometer mb |
| 20260510043931 | 17 | 269 | 1.6 | 4.8 | 0.00 | 0.00 | 0.00 | 50 | 1028.0 |
| 20260510043031 | 17 | 293 | 0.0 | 4.8 | 0.00 | 0.00 | 0.00 | 51 | 1028.0 |
| 20260510042131 | 17 | 320 | 1.6 | 6.4 | 0.00 | 0.00 | 0.00 | 50 | 1028.0 |
| 20260510041231 | 17 | 307 | 4.8 | 9.7 | 0.00 | 0.00 | 0.00 | 47 | 1028.0 |
| 20260510040331 | 17 | 315 | 3.2 | 9.7 | 0.00 | 0.00 | 0.00 | 48 | 1028.0 |
| 20260510032731 | 19 | 352 | 1.6 | 12.9 | 0.00 | 0.00 | 0.00 | 44 | 1028.3 |
| 20260510031837 | 18 | 126 | 0.0 | 3.2 | 0.00 | 0.00 | 0.00 | 48 | 1028.4 |
| 20260510030030 | 17 | 25 | 1.6 | 6.4 | 0.00 | 0.00 | 0.00 | 49 | 1028.6 |
| 20260510024230 | 17 | 230 | 1.6 | 3.2 | 0.00 | 0.00 | 0.00 | 53 | 1028.9 |
| 20260510021530 | 17 | 15 | 1.6 | 6.4 | 0.00 | 0.00 | 0.00 | 49 | 1029.5 |
| 20260510020630 | 17 | 163 | 1.6 | 6.4 | 0.00 | 0.00 | 0.00 | 53 | 1029.5 |
| 20260510015731 | 17 | 36 | 1.6 | 4.8 | 0.00 | 0.00 | 0.00 | 53 | 1029.7 |
| 20260510014830 | 16 | 37 | 3.2 | 8.0 | 0.00 | 0.00 | 0.00 | 51 | 1029.7 |
| 20260510012131 | 16 | 78 | 1.6 | 6.4 | 0.00 | 0.00 | 0.00 | 52 | 1029.8 |
| 20260510011230 | 15 | 29 | 1.6 | 4.8 | 0.00 | 0.00 | 0.00 | 52 | 1029.8 |
| 20260510010330 | 15 | 60 | 1.6 | 6.4 | 0.00 | 0.00 | 0.00 | 52 | 1029.9 |
| 20260510005430 | 15 | 58 | 3.2 | 9.7 | 0.00 | 0.00 | 0.00 | 53 | 1029.9 |
| 20260510001830 | 15 | 111 | 6.4 | 14.5 | 0.00 | 0.00 | 0.00 | 56 | 1029.8 |
| 20260510000031 | 15 | 100 | 4.8 | 11.3 | 0.00 | 0.00 | 0.00 | 57 | 1029.9 |
| 20260509235130 | 14 | 93 | 3.2 | 8.0 | 0.00 | 0.00 | 0.00 | 59 | 1029.9 |
| 20260509234230 | 13 | 103 | 3.2 | 6.4 | 0.00 | 0.00 | 0.00 | 62 | 1030.0 |
| 20260509233330 | 13 | 90 | 1.6 | 6.4 | 0.00 | 0.00 | 0.00 | 65 | 1029.9 |
| 20260509232430 | 13 | 17 | 0.0 | 1.6 | 0.00 | 0.00 | 0.00 | 66 | 1029.9 |
| 20260509231530 | 12 | 0 | 0.0 | 0.0 | 0.00 | 0.00 | 0.00 | 66 | 1029.9 |
| 20260509230630 | 11 | 17 | 1.6 | 3.2 | 0.00 | 0.00 | 0.00 | 65 | 1029.8 |
| 20260509225730 | 11 | 17 | 1.6 | 3.2 | 0.00 | 0.00 | 0.00 | 65 | 1029.7 |
| 20260509224830 | 11 | 13 | 1.6 | 3.2 | 0.00 | 0.00 | 0.00 | 65 | 1029.8 |
| 20260509223930 | 11 | 350 | 1.6 | 3.2 | 0.00 | 0.00 | 0.00 | 65 | 1029.7 |
| 20260509222130 | 11 | 319 | 0.0 | 3.2 | 0.00 | 0.00 | 0.00 | 65 | 1029.4 |
| 20260509221230 | 11 | 355 | 0.0 | 1.6 | 0.00 | 0.00 | 0.00 | 65 | 1029.4 |
| 20260509220330 | 10 | 0 | 0.0 | 0.0 | 0.00 | 0.00 | 0.00 | 65 | 1029.2 |
| 20260509214530 | 10 | 30 | 1.6 | 3.2 | 0.00 | 0.00 | 0.00 | 65 | 1028.9 |
| 20260509212730 | 10 | 30 | 1.6 | 4.8 | 0.00 | 0.00 | 0.00 | 65 | 1028.9 |
| 20260509211830 | 10 | 30 | 1.6 | 3.2 | 0.00 | 0.00 | 0.00 | 65 | 1028.7 |
| 20260509210930 | 10 | 31 | 1.6 | 3.2 | 0.00 | 0.00 | 0.00 | 65 | 1028.7 |
| 20260509210029 | 10 | 77 | 1.6 | 4.8 | 0.00 | 0.00 | 0.00 | 65 | 1028.7 |
| 20260509205130 | 10 | 130 | 0.0 | 4.8 | 0.00 | 0.00 | 0.00 | 65 | 1028.6 |
| 20260509204230 | 10 | 129 | 0.0 | 3.2 | 0.00 | 0.00 | 0.00 | 65 | 1028.5 |
| 20260509203330 | 9 | 129 | 0.0 | 3.2 | 0.00 | 0.00 | 0.00 | 65 | 1028.4 |
| 20260509202429 | 9 | 0 | 0.0 | 0.0 | 0.00 | 0.00 | 0.00 | 65 | 1028.4 |
| 20260509201529 | 9 | 129 | 1.6 | 3.2 | 0.00 | 0.00 | 0.00 | 65 | 1028.2 |
| 20260509200629 | 9 | 130 | 1.6 | 3.2 | 0.00 | 0.00 | 0.00 | 65 | 1028.1 |
| 20260509195730 | 9 | 130 | 1.6 | 3.2 | 0.00 | 0.00 | 0.00 | 65 | 1028.1 |
| 20260509193930 | 9 | 129 | 1.6 | 3.2 | 0.00 | 0.00 | 0.00 | 64 | 1028.0 |
| 20260509193030 | 10 | 129 | 1.6 | 3.2 | 0.00 | 0.00 | 0.00 | 64 | 1027.9 |
| 20260509191230 | 10 | 129 | 0.0 | 3.2 | 0.00 | 0.00 | 0.00 | 64 | 1027.9 |
| 20260509190330 | 10 | 129 | 1.6 | 3.2 | 0.00 | 0.00 | 0.00 | 64 | 1027.8 |
| 20260509184529 | 10 | 129 | 1.6 | 3.2 | 0.00 | 0.00 | 0.00 | 64 | 1027.6 |
| 20260509181829 | 10 | 129 | 1.6 | 3.2 | 0.00 | 0.00 | 0.00 | 64 | 1027.6 |
| 20260509180929 | 10 | 129 | 0.0 | 3.2 | 0.00 | 0.00 | 0.00 | 64 | 1027.6 |
| 20260509175129 | 10 | 133 | 1.6 | 8.0 | 0.00 | 0.00 | 0.00 | 64 | 1027.5 |
| 20260509174229 | 10 | 129 | 1.6 | 3.2 | 0.00 | 0.00 | 0.00 | 64 | 1027.6 |
| 20260509173329 | 11 | 121 | 1.6 | 4.8 | 0.00 | 0.00 | 0.00 | 65 | 1027.6 |
| 20260509172430 | 11 | 127 | 1.6 | 4.8 | 0.00 | 0.00 | 0.00 | 64 | 1027.6 |
| 20260509171529 | 11 | 124 | 1.6 | 4.8 | 0.00 | 0.00 | 0.00 | 64 | 1027.6 |
| 20260509170630 | 11 | 131 | 3.2 | 6.4 | 0.00 | 0.00 | 0.00 | 64 | 1027.7 |
| 20260509164830 | 10 | 106 | 3.2 | 6.4 | 0.00 | 0.00 | 0.00 | 65 | 1027.7 |
| 20260509163029 | 10 | 111 | 3.2 | 9.7 | 0.00 | 0.00 | 0.00 | 64 | 1027.9 |
| 20260509162130 | 10 | 150 | 1.6 | 4.8 | 0.00 | 0.00 | 0.00 | 64 | 1027.9 |
| 20260509160330 | 10 | 150 | 0.0 | 3.2 | 0.00 | 0.00 | 0.00 | 64 | 1028.0 |
| 20260509155429 | 10 | 149 | 1.6 | 3.2 | 0.00 | 0.00 | 0.00 | 64 | 1028.1 |
| 20260509154529 | 10 | 150 | 0.0 | 1.6 | 0.00 | 0.00 | 0.00 | 64 | 1028.1 |
| 20260509153630 | 11 | 149 | 1.6 | 3.2 | 0.00 | 0.00 | 0.00 | 64 | 1028.0 |
| 20260509152729 | 11 | 150 | 1.6 | 3.2 | 0.00 | 0.00 | 0.00 | 64 | 1028.0 |
| 20260509151829 | 11 | 150 | 1.6 | 3.2 | 0.00 | 0.00 | 0.00 | 64 | 1028.1 |
| 20260509150029 | 10 | 151 | 1.6 | 4.8 | 0.00 | 0.00 | 0.00 | 64 | 1028.1 |
| 20260509145129 | 11 | 156 | 3.2 | 8.0 | 0.00 | 0.00 | 0.00 | 64 | 1028.1 |
| 20260509144229 | 10 | 188 | 1.6 | 3.2 | 0.00 | 0.00 | 0.00 | 64 | 1028.2 |
| 20260509143329 | 11 | 188 | 1.6 | 4.8 | 0.00 | 0.00 | 0.00 | 64 | 1028.2 |
| 20260509142429 | 11 | 131 | 3.2 | 4.8 | 0.00 | 0.00 | 0.00 | 64 | 1028.3 |
| 20260509141529 | 11 | 103 | 1.6 | 3.2 | 0.00 | 0.00 | 0.00 | 64 | 1028.4 |
| 20260509140629 | 11 | 103 | 1.6 | 3.2 | 0.00 | 0.00 | 0.00 | 64 | 1028.4 |
| 20260509135729 | 11 | 117 | 0.0 | 3.2 | 0.00 | 0.00 | 0.00 | 64 | 1028.3 |
| 20260509134829 | 11 | 134 | 1.6 | 3.2 | 0.00 | 0.00 | 0.00 | 63 | 1028.3 |
| 20260509133929 | 11 | 134 | 1.6 | 3.2 | 0.00 | 0.00 | 0.00 | 63 | 1028.3 |
| 20260509133029 | 11 | 134 | 1.6 | 3.2 | 0.00 | 0.00 | 0.00 | 63 | 1028.3 |
| 20260509132129 | 11 | 134 | 1.6 | 3.2 | 0.00 | 0.00 | 0.00 | 63 | 1028.3 |
| 20260509131228 | 11 | 134 | 1.6 | 3.2 | 0.00 | 0.00 | 0.00 | 64 | 1028.4 |
| 20260509130329 | 11 | 134 | 3.2 | 4.8 | 0.00 | 0.00 | 0.00 | 64 | 1028.5 |
| 20260509124529 | 11 | 130 | 3.2 | 4.8 | 0.00 | 0.00 | 0.00 | 63 | 1028.5 |
| 20260509123629 | 11 | 125 | 3.2 | 6.4 | 0.00 | 0.00 | 0.00 | 63 | 1028.5 |
| 20260509122728 | 11 | 142 | 4.8 | 9.7 | 0.00 | 0.00 | 0.00 | 63 | 1028.5 |
| 20260509121829 | 11 | 147 | 4.8 | 8.0 | 0.00 | 0.00 | 0.00 | 63 | 1028.5 |
| 20260509120929 | 12 | 148 | 4.8 | 8.0 | 0.00 | 0.00 | 0.00 | 63 | 1028.4 |
| 20260509120028 | 12 | 150 | 3.2 | 8.0 | 0.00 | 0.00 | 0.00 | 63 | 1028.3 |
| 20260509115129 | 12 | 152 | 3.2 | 6.4 | 0.00 | 0.00 | 0.00 | 63 | 1028.3 |
| 20260509113329 | 12 | 135 | 3.2 | 6.4 | 0.00 | 0.00 | 0.00 | 63 | 1028.2 |
| 20260509105729 | 12 | 134 | 3.2 | 4.8 | 0.00 | 0.00 | 0.00 | 63 | 1028.3 |
| 20260509104828 | 12 | 136 | 1.6 | 3.2 | 0.00 | 0.00 | 0.00 | 63 | 1028.3 |
| 20260509103929 | 13 | 121 | 0.0 | 3.2 | 0.00 | 0.00 | 0.00 | 63 | 1028.3 |
| 20260509103028 | 13 | 121 | 1.6 | 4.8 | 0.00 | 0.00 | 0.00 | 63 | 1028.2 |
| 20260509102128 | 13 | 134 | 4.8 | 8.0 | 0.00 | 0.00 | 0.00 | 63 | 1028.2 |
| 20260509101228 | 13 | 149 | 6.4 | 9.7 | 0.00 | 0.00 | 0.00 | 63 | 1028.3 |
| 20260509100328 | 13 | 152 | 6.4 | 12.9 | 0.00 | 0.00 | 0.00 | 63 | 1028.3 |
| 20260509095428 | 13 | 150 | 6.4 | 14.5 | 0.00 | 0.00 | 0.00 | 63 | 1028.3 |
| 20260509094528 | 13 | 184 | 1.6 | 6.4 | 0.00 | 0.00 | 0.00 | 63 | 1028.2 |
| 20260509093629 | 13 | 181 | 0.0 | 3.2 | 0.00 | 0.00 | 0.00 | 63 | 1028.2 |
| 20260509092728 | 13 | 0 | 0.0 | 0.0 | 0.00 | 0.00 | 0.00 | 63 | 1028.1 |
| 20260509091829 | 14 | 181 | 0.0 | 1.6 | 0.00 | 0.00 | 0.00 | 63 | 1028.1 |
| 20260509090928 | 14 | 181 | 0.0 | 1.6 | 0.00 | 0.00 | 0.00 | 63 | 1028.1 |
| 20260509084228 | 15 | 181 | 0.0 | 1.6 | 0.00 | 0.00 | 0.00 | 64 | 1028.0 |
| 20260509083328 | 15 | 181 | 1.6 | 3.2 | 0.00 | 0.00 | 0.00 | 64 | 1027.9 |
| 20260509082429 | 15 | 189 | 3.2 | 4.8 | 0.00 | 0.00 | 0.00 | 64 | 1027.7 |
| 20260509081528 | 15 | 197 | 3.2 | 4.8 | 0.00 | 0.00 | 0.00 | 64 | 1027.6 |
| 20260509080628 | 15 | 208 | 3.2 | 8.0 | 0.00 | 0.00 | 0.00 | 63 | 1027.5 |
| 20260509075728 | 15 | 207 | 4.8 | 9.7 | 0.00 | 0.00 | 0.00 | 63 | 1027.5 |
| 20260509074828 | 15 | 205 | 4.8 | 9.7 | 0.00 | 0.00 | 0.00 | 63 | 1027.6 |
| 20260509073929 | 15 | 217 | 4.8 | 11.3 | 0.00 | 0.00 | 0.00 | 63 | 1027.6 |
| 20260509073028 | 15 | 208 | 4.8 | 8.0 | 0.00 | 0.00 | 0.00 | 63 | 1027.6 |
| 20260509072128 | 16 | 217 | 6.4 | 12.9 | 0.00 | 0.00 | 0.00 | 62 | 1027.5 |
| 20260509071228 | 16 | 238 | 6.4 | 12.9 | 0.00 | 0.00 | 0.00 | 62 | 1027.4 |
| 20260509065428 | 16 | 234 | 6.4 | 12.9 | 0.00 | 0.00 | 0.00 | 62 | 1027.4 |
| 20260509063629 | 16 | 235 | 8.0 | 16.1 | 0.00 | 0.00 | 0.00 | 61 | 1027.4 |
| 20260509062728 | 16 | 230 | 9.7 | 19.3 | 0.00 | 0.00 | 0.00 | 60 | 1027.4 |
| 20260509061827 | 16 | 218 | 6.4 | 17.7 | 0.00 | 0.00 | 0.00 | 60 | 1027.5 |
| 20260509060928 | 16 | 222 | 6.4 | 14.5 | 0.00 | 0.00 | 0.00 | 60 | 1027.3 |
| 20260509060027 | 16 | 216 | 4.8 | 12.9 | 0.00 | 0.00 | 0.00 | 60 | 1027.4 |
| 20260509055127 | 17 | 212 | 8.0 | 14.5 | 0.00 | 0.00 | 0.00 | 59 | 1027.4 |
| 20260509053327 | 17 | 213 | 6.4 | 14.5 | 0.00 | 0.00 | 0.00 | 60 | 1027.5 |
| 20260509052428 | 17 | 241 | 9.7 | 17.7 | 0.00 | 0.00 | 0.00 | 60 | 1027.5 |
| 20260509051527 | 17 | 231 | 9.7 | 19.3 | 0.00 | 0.00 | 0.00 | 60 | 1027.5 |
| 20260509045727 | 16 | 235 | 6.4 | 12.9 | 0.00 | 0.00 | 0.00 | 61 | 1027.6 |